Torna al catalogo

STARLINK-35281

AttivoComunicazioniVLEO
NORAD 65824·PAYLOAD·🇺🇸 United States

Lanciato Sep 29, 2025 da Vandenberg Space Force Base

Loading…

Prossimi Passaggi (prossime 24 ore)

TLE

AggiornatoSource: CelesTrak SupGP

Epoca: Sep 14, 2026, 22:47 UTC

1 65824C 25221B   26257.94979167  .00049213  00000+0  14542-2 0  2574
2 65824  53.1575 287.3909 0001226  88.1097   7.0228 15.34360725    11

Traccia STARLINK-35281 in tempo reale con AllMySat

Download on the App Store